Regional Weather Roundup
Issued by NWS Jackson, KY

Home | Current Version | Previous Version | Text Only | Print | Product List | Glossary Off
Versions: 1 2 3 4 5 6 7 8 9 10 11 12 13 14 15 16 17 18 19 20 21 22 23 24 25 26 27

000
ASUS43 KJKL 220910
RWRJKL

EAST KENTUCKY HOURLY WEATHER ROUNDUP
NATIONAL WEATHER SERVICE JACKSON KY
500 AM EDT SAT APR 22 2017

NOTE: "FAIR" INDICATES FEW OR NO CLOUDS BELOW 12,000 FEET WITH
NO SIGNIFICANT WEATHER AND/OR OBSTRUCTIONS TO VISIBILITY.

* THESE REPORTS ARE NOT UNDER NWS QUALITY CONTROL AND MAY NOT
  REPORT WEATHER SUCH AS PRECIPITATION AND FOG.

KYZ079-080-083-085-087-088-110-112-115-119-120-221000
...EASTERN KENTUCKY...

CITY           SKY/WX    TMP DP  RH WIND       PRES   REMARKS
JACKSON        LGT RAIN  51  50  96 CALM      29.91S FOG
LONDON         CLOUDY    53  50  89 NE7G17    29.89F
SOMERSET*      CLOUDY    54  50  87 NE9       29.91R
MONTICELLO*    CLOUDY    55  52  89 N7        29.91S
WILLIAMSBURG*  CLOUDY    54  54 100 N8        29.89S
MIDDLESBORO*   DRIZZLE   63  63 100 CALM      29.86S
HARLAN APT*    CLOUDY    61  61 100 CALM      29.86S
PIKE CO APT*   CLOUDY    53  53 100 N8        29.89R
BIG SANDY APT* CLOUDY    53  51  95 N5        29.91R
MOREHEAD APT*  CLOUDY    50  46  87 N5        29.96F
ASHLAND*       CLOUDY    52  48  87 NE5       29.94S
$$

KYZ035-036-041-042-044-050-067-078-099-221000
...CENTRAL KENTUCKY...

CITY           SKY/WX    TMP DP  RH WIND       PRES   REMARKS
MT STERLING*   CLOUDY    48  46  93 NE10      29.95F
FLEMING/MASON* DRIZZLE   46  46  97 NE8       29.98S
DANVILLE*      CLOUDY    50  46  87 NE9       29.92F
LEXINGTON      CLOUDY    50  46  86 NE15      29.94F
FRANKFORT      CLOUDY    50  45  83 NE6       29.95R
LOUISVILLE     CLOUDY    50  47  89 N12       29.97R
LEBANON*         N/A     52  48  87 NE9       29.92S
GLASGOW*       CLOUDY    54  48  82 NE6       29.92R
BOWLING GREEN  CLOUDY    55  51  86 NE8       29.91R
$$

KYZ091>093-OHZ055-061-077-WVZ005-015-034-035-042-221000
...SOUTHERN OHIO/WEST VIRGINIA...

CITY           SKY/WX    TMP DP  RH WIND       PRES   REMARKS
COVINGTON      CLOUDY    48  44  86 NE13      29.98F
COLUMBUS       CLOUDY    46  41  82 NE7       30.01R
DAYTON         MOCLDY    44  38  79 NE10      30.01F
WILMINGTON     CLOUDY    45  43  93 NE12      29.99S
HUNTINGTON     RAIN      51  48  89 N9        29.94R FOG
CHARLESTON     CLOUDY    55  47  74 N6        29.90F
PINEVILLE*     CLOUDY    59  58  97 MISG        N/A
BECKLEY        CLOUDY    53  50  89 N5        29.89S
BLUEFIELD      MOCLDY    57  55  93 W6        29.90F
LOGAN CO APT*  CLOUDY    54  50  87 N5        29.89F
$$

VAZ002-007-008-TNZ017-027-036-066-071-221000
...SOUTHWEST VIRGINIA/EAST TENNESSEE...

CITY           SKY/WX    TMP DP  RH WIND       PRES   REMARKS
WISE*          CLOUDY    61  61 100 CALM      29.90F
JONESVILLE*    RAIN      63  63 100 CALM      29.88F
ABINGDON*      LGT RAIN  61  61 100 CALM      29.90F
BRISTOL        MOCLDY    60  59  96 MISG      29.88F
MORRISTOWN*    CLOUDY    61  61 100 CALM      29.85F
SEVIERVILLE*   SUNNY     61  61 100 CALM      29.84F
KNOXVILLE      PTCLDY    63  61  93 CALM      29.83F
LAFOLLETTE*    CLOUDY    64  63  94 CALM      29.88S
OAK RIDGE      CLOUDY    64  62  93 CALM      29.86S
CROSSVILLE     CLOUDY    61  60  97 CALM      29.88R
NASHVILLE      TSTM      56  54  93 N9        29.88S FOG
$$

...KEY TO REMARKS...
VSB - VISIBILITY IN MILES
WCI - WIND CHILL INDEX
HX  - HEAT INDEX

$$




USA.gov is the U.S. government's official web portal to all federal, state and local government web resources and services.